Year,Month,Day,Hour,Minute,Value (Times are PST for temperature in C)
2010,07,08,00,00,23.40
2010,07,08,00,01,23.40
2010,07,08,00,02,23.40
2010,07,08,00,03,23.40
2010,07,08,00,04,23.40
2010,07,08,00,05,23.40
2010,07,08,00,06,23.40
2010,07,08,00,07,23.40
2010,07,08,00,08,23.40
2010,07,08,00,09,23.40
2010,07,08,00,10,23.30
2010,07,08,00,11,23.30
2010,07,08,00,12,23.30
2010,07,08,00,13,23.30
2010,07,08,00,14,23.30
2010,07,08,00,15,23.20
2010,07,08,00,16,23.20
2010,07,08,00,17,23.20
2010,07,08,00,18,23.20
2010,07,08,00,19,23.20
2010,07,08,00,20,23.20
2010,07,08,00,21,23.20
2010,07,08,00,22,23.20
2010,07,08,00,23,23.20
2010,07,08,00,24,23.20
2010,07,08,00,25,23.20
2010,07,08,00,26,23.20
2010,07,08,00,27,23.30
2010,07,08,00,28,23.30
2010,07,08,00,29,23.30
2010,07,08,00,30,23.30
2010,07,08,00,31,23.30
2010,07,08,00,32,23.30
2010,07,08,00,33,23.30
2010,07,08,00,34,23.30
2010,07,08,00,35,23.30
2010,07,08,00,36,23.30
2010,07,08,00,37,23.30
2010,07,08,00,38,23.30
2010,07,08,00,39,23.30
2010,07,08,00,40,23.30
2010,07,08,00,41,23.30
2010,07,08,00,42,23.30
2010,07,08,00,43,23.30
2010,07,08,00,44,23.30
2010,07,08,00,45,23.30
2010,07,08,00,46,23.40
2010,07,08,00,47,23.40
2010,07,08,00,48,23.30
2010,07,08,00,49,23.30
2010,07,08,00,50,23.30
2010,07,08,00,51,23.30
2010,07,08,00,52,23.20
2010,07,08,00,53,23.20
2010,07,08,00,54,23.10
2010,07,08,00,55,23.00
2010,07,08,00,56,22.90
2010,07,08,00,57,22.90
2010,07,08,00,58,22.80
2010,07,08,00,59,22.70
2010,07,08,01,00,22.60
2010,07,08,01,01,22.60
2010,07,08,01,02,22.50
2010,07,08,01,03,22.40
2010,07,08,01,04,22.40
2010,07,08,01,05,22.30
2010,07,08,01,06,22.20
2010,07,08,01,07,22.10
2010,07,08,01,08,22.00
2010,07,08,01,09,22.00
2010,07,08,01,10,21.90
2010,07,08,01,11,21.90
2010,07,08,01,12,21.80
2010,07,08,01,13,21.80
2010,07,08,01,14,21.70
2010,07,08,01,15,21.60
2010,07,08,01,16,21.60
2010,07,08,01,17,21.50
2010,07,08,01,18,21.40
2010,07,08,01,19,21.30
2010,07,08,01,20,21.20
2010,07,08,01,21,21.10
2010,07,08,01,22,21.10
2010,07,08,01,23,21.00
2010,07,08,01,24,21.00
2010,07,08,01,25,20.90
2010,07,08,01,26,20.80
2010,07,08,01,27,20.80
2010,07,08,01,28,20.80
2010,07,08,01,29,20.80
2010,07,08,01,30,20.70
2010,07,08,01,31,20.70
2010,07,08,01,32,20.70
2010,07,08,01,33,20.70
2010,07,08,01,34,20.70
2010,07,08,01,35,20.70
2010,07,08,01,36,20.70
2010,07,08,01,37,20.70
2010,07,08,01,38,20.70
2010,07,08,01,39,20.70
2010,07,08,01,40,20.70
2010,07,08,01,41,20.70
2010,07,08,01,42,20.70
2010,07,08,01,43,20.80
2010,07,08,01,44,20.80
2010,07,08,01,45,20.80
2010,07,08,01,46,20.80
2010,07,08,01,47,20.80
2010,07,08,01,48,20.90
2010,07,08,01,49,20.90
2010,07,08,01,50,20.90
2010,07,08,01,51,20.90
2010,07,08,01,52,20.80
2010,07,08,01,53,20.90
2010,07,08,01,54,20.90
2010,07,08,01,55,20.90
2010,07,08,01,56,20.90
2010,07,08,01,57,21.00
2010,07,08,01,58,21.10
2010,07,08,01,59,21.10
2010,07,08,02,00,21.10
2010,07,08,02,01,21.20
2010,07,08,02,02,21.20
2010,07,08,02,03,21.30
2010,07,08,02,04,21.30
2010,07,08,02,05,21.30
2010,07,08,02,06,21.30
2010,07,08,02,07,21.40
2010,07,08,02,08,21.40
2010,07,08,02,09,21.50
2010,07,08,02,10,21.60
2010,07,08,02,11,21.60
2010,07,08,02,12,21.60
2010,07,08,02,13,21.60
2010,07,08,02,14,21.60
2010,07,08,02,15,21.60
2010,07,08,02,16,21.60
2010,07,08,02,17,21.60
2010,07,08,02,18,21.60
2010,07,08,02,19,21.40
2010,07,08,02,20,21.40
2010,07,08,02,21,21.30
2010,07,08,02,22,21.20
2010,07,08,02,23,21.10
2010,07,08,02,24,21.00
2010,07,08,02,25,20.90
2010,07,08,02,26,20.80
2010,07,08,02,27,20.80
2010,07,08,02,28,20.70
2010,07,08,02,29,20.60
2010,07,08,02,30,20.60
2010,07,08,02,31,20.50
2010,07,08,02,32,20.50
2010,07,08,02,33,20.40
2010,07,08,02,34,20.40
2010,07,08,02,35,20.30
2010,07,08,02,36,20.20
2010,07,08,02,37,20.20
2010,07,08,02,38,20.20
2010,07,08,02,39,20.10
2010,07,08,02,40,20.10
2010,07,08,02,41,20.00
2010,07,08,02,42,19.90
2010,07,08,02,43,19.90
2010,07,08,02,44,19.80
2010,07,08,02,45,19.70
2010,07,08,02,46,19.60
2010,07,08,02,47,19.60
2010,07,08,02,48,19.50
2010,07,08,02,49,19.50
2010,07,08,02,50,19.40
2010,07,08,02,51,19.40
2010,07,08,02,52,19.40
2010,07,08,02,53,19.30
2010,07,08,02,54,19.30
2010,07,08,02,55,19.30
2010,07,08,02,56,19.30
2010,07,08,02,57,19.30
2010,07,08,02,58,19.30
2010,07,08,02,59,19.30
2010,07,08,03,00,19.30
2010,07,08,03,01,19.30
2010,07,08,03,02,19.30
2010,07,08,03,03,19.30
2010,07,08,03,04,19.30
2010,07,08,03,05,19.30
2010,07,08,03,06,19.30
2010,07,08,03,07,19.30
2010,07,08,03,08,19.30
2010,07,08,03,09,19.30
2010,07,08,03,10,19.30
2010,07,08,03,11,19.30
2010,07,08,03,12,19.30
2010,07,08,03,13,19.30
2010,07,08,03,14,19.30
2010,07,08,03,15,19.40
2010,07,08,03,16,19.40
2010,07,08,03,17,19.40
2010,07,08,03,18,19.40
2010,07,08,03,19,19.50
2010,07,08,03,20,19.50
2010,07,08,03,21,19.40
2010,07,08,03,22,19.40
2010,07,08,03,23,19.40
2010,07,08,03,24,19.40
2010,07,08,03,25,19.40
2010,07,08,03,26,19.40
2010,07,08,03,27,19.40
2010,07,08,03,28,19.40
2010,07,08,03,29,19.30
2010,07,08,03,30,19.30
2010,07,08,03,31,19.30
2010,07,08,03,32,19.30
2010,07,08,03,33,19.20
2010,07,08,03,34,19.20
2010,07,08,03,35,19.20
2010,07,08,03,36,19.20
2010,07,08,03,37,19.10
2010,07,08,03,38,19.10
2010,07,08,03,39,19.10
2010,07,08,03,40,19.10
2010,07,08,03,41,19.10
2010,07,08,03,42,19.10
2010,07,08,03,43,19.10
2010,07,08,03,44,19.00
2010,07,08,03,45,18.90
2010,07,08,03,46,18.90
2010,07,08,03,47,18.90
2010,07,08,03,48,18.90
2010,07,08,03,49,18.90
2010,07,08,03,50,18.90
2010,07,08,03,51,18.90
2010,07,08,03,52,18.90
2010,07,08,03,53,18.90
2010,07,08,03,54,18.90
2010,07,08,03,55,18.90
2010,07,08,03,56,18.90
2010,07,08,03,57,18.90
2010,07,08,03,58,18.90
2010,07,08,03,59,18.90
2010,07,08,04,00,18.90
2010,07,08,04,01,18.90
2010,07,08,04,02,18.90
2010,07,08,04,03,18.90
2010,07,08,04,04,18.90
2010,07,08,04,05,18.90
2010,07,08,04,06,18.90
2010,07,08,04,07,18.90
2010,07,08,04,08,18.90
2010,07,08,04,09,18.90
2010,07,08,04,10,18.90
2010,07,08,04,11,18.90
2010,07,08,04,12,18.90
2010,07,08,04,13,18.90
2010,07,08,04,14,18.90
2010,07,08,04,15,18.90
2010,07,08,04,16,18.90
2010,07,08,04,17,18.90
2010,07,08,04,18,18.90
2010,07,08,04,19,19.10
2010,07,08,04,20,19.10
2010,07,08,04,21,19.10
2010,07,08,04,22,19.10
2010,07,08,04,23,19.10
2010,07,08,04,24,19.10
2010,07,08,04,25,19.10
2010,07,08,04,26,19.10
2010,07,08,04,27,19.10
2010,07,08,04,28,19.10
2010,07,08,04,29,19.10
2010,07,08,04,30,19.10
2010,07,08,04,31,19.10
2010,07,08,04,32,19.10
2010,07,08,04,33,19.10
2010,07,08,04,34,19.10
2010,07,08,04,35,19.10
2010,07,08,04,36,19.10
2010,07,08,04,37,19.10
2010,07,08,04,38,19.10
2010,07,08,04,39,19.10
2010,07,08,04,40,19.10
2010,07,08,04,41,19.10
2010,07,08,04,42,19.10
2010,07,08,04,43,19.20
2010,07,08,04,44,19.20
2010,07,08,04,45,19.30
2010,07,08,04,46,19.40
2010,07,08,04,47,19.50
2010,07,08,04,48,19.50
2010,07,08,04,49,19.60
2010,07,08,04,50,19.60
2010,07,08,04,51,19.60
2010,07,08,04,52,19.60
2010,07,08,04,53,19.60
2010,07,08,04,54,19.50
2010,07,08,04,55,19.50
2010,07,08,04,56,19.50
2010,07,08,04,57,19.50
2010,07,08,04,58,19.50
2010,07,08,04,59,19.50
2010,07,08,05,00,19.50
2010,07,08,05,01,19.50
2010,07,08,05,02,19.60
2010,07,08,05,03,19.60
2010,07,08,05,04,19.60
2010,07,08,05,05,19.60
2010,07,08,05,06,19.60
2010,07,08,05,07,19.60
2010,07,08,05,08,19.50
2010,07,08,05,09,19.40
2010,07,08,05,10,19.40
2010,07,08,05,11,19.20
2010,07,08,05,12,19.10
2010,07,08,05,13,18.90
2010,07,08,05,14,18.80
2010,07,08,05,15,18.70
2010,07,08,05,16,18.60
2010,07,08,05,17,18.50
2010,07,08,05,18,18.40
2010,07,08,05,19,18.30
2010,07,08,05,20,18.30
2010,07,08,05,21,18.30
2010,07,08,05,22,18.40
2010,07,08,05,23,18.50
2010,07,08,05,24,18.50
2010,07,08,05,25,18.60
2010,07,08,05,26,18.60
2010,07,08,05,27,18.60
2010,07,08,05,28,18.60
2010,07,08,05,29,18.60
2010,07,08,05,30,18.50
2010,07,08,05,31,18.50
2010,07,08,05,32,18.40
2010,07,08,05,33,18.40
2010,07,08,05,34,18.30
2010,07,08,05,35,18.20
2010,07,08,05,36,18.20
2010,07,08,05,37,18.20
2010,07,08,05,38,18.10
2010,07,08,05,39,18.10
2010,07,08,05,40,18.00
2010,07,08,05,41,17.90
2010,07,08,05,42,17.90
2010,07,08,05,43,17.90
2010,07,08,05,44,17.90
2010,07,08,05,45,17.80
2010,07,08,05,46,17.80
2010,07,08,05,47,17.80
2010,07,08,05,48,17.70
2010,07,08,05,49,17.70
2010,07,08,05,50,17.70
2010,07,08,05,51,17.70
2010,07,08,05,52,17.80
2010,07,08,05,53,17.90
2010,07,08,05,54,17.90
2010,07,08,05,55,18.10
2010,07,08,05,56,18.20
2010,07,08,05,57,18.20
2010,07,08,05,58,18.20
2010,07,08,05,59,18.20
2010,07,08,06,00,18.30
2010,07,08,06,01,18.40
2010,07,08,06,02,18.40
2010,07,08,06,03,18.40
2010,07,08,06,04,18.40
2010,07,08,06,05,18.40
2010,07,08,06,06,18.40
2010,07,08,06,07,18.40
2010,07,08,06,08,18.30
2010,07,08,06,09,18.40
2010,07,08,06,10,18.40
2010,07,08,06,11,18.50
2010,07,08,06,12,18.70
2010,07,08,06,13,18.90
2010,07,08,06,14,19.10
2010,07,08,06,15,19.30
2010,07,08,06,16,19.60
2010,07,08,06,17,19.90
2010,07,08,06,18,20.10
2010,07,08,06,19,20.30
2010,07,08,06,20,20.50
2010,07,08,06,21,20.60
2010,07,08,06,22,20.70
2010,07,08,06,23,20.80
2010,07,08,06,24,20.80
2010,07,08,06,25,20.80
2010,07,08,06,26,20.90
2010,07,08,06,27,20.90
2010,07,08,06,28,20.90
2010,07,08,06,29,20.90
2010,07,08,06,30,20.90
2010,07,08,06,31,20.90
2010,07,08,06,32,20.90
2010,07,08,06,33,20.90
2010,07,08,06,34,20.90
2010,07,08,06,35,20.90
2010,07,08,06,36,20.90
2010,07,08,06,37,20.90
2010,07,08,06,38,20.90
2010,07,08,06,39,20.90
2010,07,08,06,40,20.90
2010,07,08,06,41,20.90
2010,07,08,06,42,21.00
2010,07,08,06,43,21.10
2010,07,08,06,44,21.10
2010,07,08,06,45,21.10
2010,07,08,06,46,21.10
2010,07,08,06,47,21.10
2010,07,08,06,48,21.10
2010,07,08,06,49,21.10
2010,07,08,06,50,21.00
2010,07,08,06,51,21.00
2010,07,08,06,52,21.00
2010,07,08,06,53,21.10
2010,07,08,06,54,21.10
2010,07,08,06,55,21.10
2010,07,08,06,56,21.20
2010,07,08,06,57,21.30
2010,07,08,06,58,21.30
2010,07,08,06,59,21.40
2010,07,08,07,00,21.50
2010,07,08,07,01,21.60
2010,07,08,07,02,21.60
2010,07,08,07,03,21.60
2010,07,08,07,04,21.60
2010,07,08,07,05,21.70
2010,07,08,07,06,21.70
2010,07,08,07,07,21.80
2010,07,08,07,08,21.80
2010,07,08,07,09,21.90
2010,07,08,07,10,22.00
2010,07,08,07,11,22.00
2010,07,08,07,12,22.00
2010,07,08,07,13,22.00
2010,07,08,07,14,22.10
2010,07,08,07,15,22.10
2010,07,08,07,16,22.10
2010,07,08,07,17,22.20
2010,07,08,07,18,22.20
2010,07,08,07,19,22.20
2010,07,08,07,20,22.30
2010,07,08,07,21,22.40
2010,07,08,07,22,22.40
2010,07,08,07,23,22.50
2010,07,08,07,24,22.50
2010,07,08,07,25,22.60
2010,07,08,07,26,22.60
2010,07,08,07,27,22.70
2010,07,08,07,28,22.70
2010,07,08,07,29,22.80
2010,07,08,07,30,22.80
2010,07,08,07,31,22.90
2010,07,08,07,32,22.90
2010,07,08,07,33,22.90
2010,07,08,07,34,23.00
2010,07,08,07,35,23.10
2010,07,08,07,36,23.10
2010,07,08,07,37,23.10
2010,07,08,07,38,23.20
2010,07,08,07,39,23.20
2010,07,08,07,40,23.20
2010,07,08,07,41,23.20
2010,07,08,07,42,23.30
2010,07,08,07,43,23.30
2010,07,08,07,44,23.30
2010,07,08,07,45,23.40
2010,07,08,07,46,23.40
2010,07,08,07,47,23.50
2010,07,08,07,48,23.60
2010,07,08,07,49,23.70
2010,07,08,07,50,23.70
2010,07,08,07,51,23.70
2010,07,08,07,52,23.60
2010,07,08,07,53,23.60
2010,07,08,07,54,23.60
2010,07,08,07,55,23.60
2010,07,08,07,56,23.60
2010,07,08,07,57,23.60
2010,07,08,07,58,23.60
2010,07,08,07,59,23.60
2010,07,08,08,00,23.60
2010,07,08,08,01,23.60
2010,07,08,08,02,23.60
2010,07,08,08,03,23.60
2010,07,08,08,04,23.50
2010,07,08,08,05,23.50
2010,07,08,08,06,23.60
2010,07,08,08,07,23.60
2010,07,08,08,08,23.70
2010,07,08,08,09,23.70
2010,07,08,08,10,23.70
2010,07,08,08,11,23.70
2010,07,08,08,12,23.80
2010,07,08,08,13,23.80
2010,07,08,08,14,23.80
2010,07,08,08,15,23.80
2010,07,08,08,16,23.80
2010,07,08,08,17,23.90
2010,07,08,08,18,23.90
2010,07,08,08,19,23.90
2010,07,08,08,20,23.90
2010,07,08,08,21,23.90
2010,07,08,08,22,23.90
2010,07,08,08,23,23.90
2010,07,08,08,24,24.10
2010,07,08,08,25,24.10
2010,07,08,08,26,24.10
2010,07,08,08,27,24.10
2010,07,08,08,28,24.10
2010,07,08,08,29,24.10
2010,07,08,08,30,24.10
2010,07,08,08,31,24.10
2010,07,08,08,32,24.10
2010,07,08,08,33,24.10
2010,07,08,08,34,24.10
2010,07,08,08,35,24.10
2010,07,08,08,36,24.10
2010,07,08,08,37,24.10
2010,07,08,08,38,24.10
2010,07,08,08,39,24.00
2010,07,08,08,40,23.90
2010,07,08,08,41,23.90
2010,07,08,08,42,23.80
2010,07,08,08,43,23.80
2010,07,08,08,44,23.80
2010,07,08,08,45,23.80
2010,07,08,08,46,23.80
2010,07,08,08,47,23.90
2010,07,08,08,48,23.80
2010,07,08,08,49,23.90
2010,07,08,08,50,23.80
2010,07,08,08,51,23.90
2010,07,08,08,52,23.90
2010,07,08,08,53,23.90
2010,07,08,08,54,23.90
2010,07,08,08,55,24.00
2010,07,08,08,56,24.10
2010,07,08,08,57,24.10
2010,07,08,08,58,24.10
2010,07,08,08,59,24.10
2010,07,08,09,00,24.10
2010,07,08,09,01,24.20
2010,07,08,09,02,24.10
2010,07,08,09,03,24.10
2010,07,08,09,04,24.10
2010,07,08,09,05,24.10
2010,07,08,09,06,24.10
2010,07,08,09,07,24.10
2010,07,08,09,08,24.10
2010,07,08,09,09,24.10
2010,07,08,09,10,24.10
2010,07,08,09,11,24.00
2010,07,08,09,12,23.90
2010,07,08,09,13,23.90
2010,07,08,09,14,23.90
2010,07,08,09,15,24.00
2010,07,08,09,16,24.10
2010,07,08,09,17,24.10
2010,07,08,09,18,24.10
2010,07,08,09,19,24.10
2010,07,08,09,20,24.10
2010,07,08,09,21,24.10
2010,07,08,09,22,24.20
2010,07,08,09,23,24.20
2010,07,08,09,24,24.30
2010,07,08,09,25,24.30
2010,07,08,09,26,24.30
2010,07,08,09,27,24.30
2010,07,08,09,28,24.30
2010,07,08,09,29,24.30
2010,07,08,09,30,24.30
2010,07,08,09,31,24.40
2010,07,08,09,32,24.40
2010,07,08,09,33,24.40
2010,07,08,09,34,24.50
2010,07,08,09,35,24.50
2010,07,08,09,36,24.60
2010,07,08,09,37,24.70
2010,07,08,09,38,24.80
2010,07,08,09,39,24.90
2010,07,08,09,40,24.90
2010,07,08,09,41,25.00
2010,07,08,09,42,25.10
2010,07,08,09,43,25.20
2010,07,08,09,44,25.20
2010,07,08,09,45,25.30
2010,07,08,09,46,25.30
2010,07,08,09,47,25.30
2010,07,08,09,48,25.40
2010,07,08,09,49,25.40
2010,07,08,09,50,25.40
2010,07,08,09,51,25.40
2010,07,08,09,52,25.50
2010,07,08,09,53,25.60
2010,07,08,09,54,25.70
2010,07,08,09,55,25.70
2010,07,08,09,56,25.70
2010,07,08,09,57,25.70
2010,07,08,09,58,25.70
2010,07,08,09,59,25.80
2010,07,08,10,00,25.80
2010,07,08,10,01,25.80
2010,07,08,10,02,25.70
2010,07,08,10,03,25.70
2010,07,08,10,04,25.70
2010,07,08,10,05,25.80
2010,07,08,10,06,25.90
2010,07,08,10,07,25.90
2010,07,08,10,08,26.00
2010,07,08,10,09,26.00
2010,07,08,10,10,26.10
2010,07,08,10,11,26.00
2010,07,08,10,12,26.00
2010,07,08,10,13,25.90
2010,07,08,10,14,25.90
2010,07,08,10,15,26.00
2010,07,08,10,16,26.00
2010,07,08,10,17,26.10
2010,07,08,10,18,26.10
2010,07,08,10,19,26.00
2010,07,08,10,20,25.90
2010,07,08,10,21,25.90
2010,07,08,10,22,25.80
2010,07,08,10,23,25.80
2010,07,08,10,24,25.80
2010,07,08,10,25,25.80
2010,07,08,10,26,25.70
2010,07,08,10,27,25.70
2010,07,08,10,28,25.80
2010,07,08,10,29,25.90
2010,07,08,10,30,26.00
2010,07,08,10,31,26.10
2010,07,08,10,32,26.10
2010,07,08,10,33,26.20
2010,07,08,10,34,26.30
2010,07,08,10,35,26.20
2010,07,08,10,36,26.10
2010,07,08,10,37,26.10
2010,07,08,10,38,26.00
2010,07,08,10,39,26.00
2010,07,08,10,40,26.10
2010,07,08,10,41,26.10
2010,07,08,10,42,26.10
2010,07,08,10,43,26.20
2010,07,08,10,44,26.30
2010,07,08,10,45,26.50
2010,07,08,10,46,26.60
2010,07,08,10,47,26.60
2010,07,08,10,48,26.60
2010,07,08,10,49,26.60
2010,07,08,10,50,26.60
2010,07,08,10,51,26.60
2010,07,08,10,52,26.70
2010,07,08,10,53,26.70
2010,07,08,10,54,26.70
2010,07,08,10,55,26.80
2010,07,08,10,56,26.80
2010,07,08,10,57,26.90
2010,07,08,10,58,26.90
2010,07,08,10,59,26.80
2010,07,08,11,00,26.80
2010,07,08,11,01,26.80
2010,07,08,11,02,26.80
2010,07,08,11,03,26.70
2010,07,08,11,04,26.80
2010,07,08,11,05,26.80
2010,07,08,11,06,26.90
2010,07,08,11,07,26.90
2010,07,08,11,08,26.90
2010,07,08,11,09,26.90
2010,07,08,11,10,26.90
2010,07,08,11,11,26.90
2010,07,08,11,12,26.90
2010,07,08,11,13,26.90
2010,07,08,11,14,26.90
2010,07,08,11,15,26.90
2010,07,08,11,16,27.00
2010,07,08,11,17,27.10
2010,07,08,11,18,27.20
2010,07,08,11,19,27.20
2010,07,08,11,20,27.20
2010,07,08,11,21,27.20
2010,07,08,11,22,27.20
2010,07,08,11,23,27.10
2010,07,08,11,24,27.10
2010,07,08,11,25,27.10
2010,07,08,11,26,27.10
2010,07,08,11,27,27.10
2010,07,08,11,28,27.10
2010,07,08,11,29,27.20
2010,07,08,11,30,27.20
2010,07,08,11,31,27.30
2010,07,08,11,32,27.30
2010,07,08,11,33,27.30
2010,07,08,11,34,27.30
2010,07,08,11,35,27.30
2010,07,08,11,36,27.30
2010,07,08,11,37,27.40
2010,07,08,11,38,27.40
2010,07,08,11,39,27.50
2010,07,08,11,40,27.60
2010,07,08,11,41,27.70
2010,07,08,11,42,27.80
2010,07,08,11,43,27.90
2010,07,08,11,44,28.10
2010,07,08,11,45,28.20
2010,07,08,11,46,28.30
2010,07,08,11,47,28.50
2010,07,08,11,48,28.60
2010,07,08,11,49,28.70
2010,07,08,11,50,28.70
2010,07,08,11,51,28.70
2010,07,08,11,52,28.70
2010,07,08,11,53,28.70
2010,07,08,11,54,28.80
2010,07,08,11,55,28.80
2010,07,08,11,56,28.80
2010,07,08,11,57,28.80
2010,07,08,11,58,28.80
2010,07,08,11,59,28.80
2010,07,08,12,00,28.70
2010,07,08,12,01,28.70
2010,07,08,12,02,28.80
2010,07,08,12,03,28.80
2010,07,08,12,04,28.90
2010,07,08,12,05,28.90
2010,07,08,12,06,28.90
2010,07,08,12,07,28.90
2010,07,08,12,08,29.00
2010,07,08,12,09,29.20
2010,07,08,12,10,29.20
2010,07,08,12,11,29.30
2010,07,08,12,12,29.20
2010,07,08,12,13,29.10
2010,07,08,12,14,29.10
2010,07,08,12,15,29.00
2010,07,08,12,16,29.00
2010,07,08,12,17,29.10
2010,07,08,12,18,29.20
2010,07,08,12,19,29.20
2010,07,08,12,20,29.30
2010,07,08,12,21,29.40
2010,07,08,12,22,29.50
2010,07,08,12,23,29.50
2010,07,08,12,24,29.50
2010,07,08,12,25,29.20
2010,07,08,12,26,29.10
2010,07,08,12,27,28.90
2010,07,08,12,28,28.70
2010,07,08,12,29,28.60
2010,07,08,12,30,28.60
2010,07,08,12,31,28.60
2010,07,08,12,32,28.60
2010,07,08,12,33,28.50
2010,07,08,12,34,28.40
2010,07,08,12,35,28.40
2010,07,08,12,36,28.40
2010,07,08,12,37,28.40
2010,07,08,12,38,28.30
2010,07,08,12,39,28.30
2010,07,08,12,40,28.30
2010,07,08,12,41,28.30
2010,07,08,12,42,28.30
2010,07,08,12,43,28.30
2010,07,08,12,44,28.30
2010,07,08,12,45,28.40
2010,07,08,12,46,28.50
2010,07,08,12,47,28.70
2010,07,08,12,48,28.80
2010,07,08,12,49,29.00
2010,07,08,12,50,29.20
2010,07,08,12,51,29.40
2010,07,08,12,52,29.60
2010,07,08,12,53,29.70
2010,07,08,12,54,29.70
2010,07,08,12,55,29.80
2010,07,08,12,56,29.90
2010,07,08,12,57,30.00
2010,07,08,12,58,30.10
2010,07,08,12,59,30.10
2010,07,08,13,00,30.00
2010,07,08,13,01,29.90
2010,07,08,13,02,29.90
2010,07,08,13,03,29.90
2010,07,08,13,04,29.90
2010,07,08,13,05,29.90
2010,07,08,13,06,29.90
2010,07,08,13,07,29.90
2010,07,08,13,08,29.80
2010,07,08,13,09,29.90
2010,07,08,13,10,29.90
2010,07,08,13,11,29.90
2010,07,08,13,12,30.00
2010,07,08,13,13,30.10
2010,07,08,13,14,30.20
2010,07,08,13,15,30.20
2010,07,08,13,16,30.20
2010,07,08,13,17,30.30
2010,07,08,13,18,30.30
2010,07,08,13,19,30.20
2010,07,08,13,20,30.10
2010,07,08,13,21,30.10
2010,07,08,13,22,30.10
2010,07,08,13,23,30.20
2010,07,08,13,24,30.20
2010,07,08,13,25,30.20
2010,07,08,13,26,30.20
2010,07,08,13,27,30.30
2010,07,08,13,28,30.40
2010,07,08,13,29,30.60
2010,07,08,13,30,30.60
2010,07,08,13,31,30.70
2010,07,08,13,32,30.70
2010,07,08,13,33,30.80
2010,07,08,13,34,30.80
2010,07,08,13,35,30.80
2010,07,08,13,36,30.90
2010,07,08,13,37,31.00
2010,07,08,13,38,31.00
2010,07,08,13,39,31.10
2010,07,08,13,40,31.10
2010,07,08,13,41,31.20
2010,07,08,13,42,31.20
2010,07,08,13,43,31.20
2010,07,08,13,44,31.30
2010,07,08,13,45,31.30
2010,07,08,13,46,31.30
2010,07,08,13,47,31.40
2010,07,08,13,48,31.40
2010,07,08,13,49,31.50
2010,07,08,13,50,31.60
2010,07,08,13,51,31.60
2010,07,08,13,52,31.60
2010,07,08,13,53,31.60
2010,07,08,13,54,31.70
2010,07,08,13,55,31.70
2010,07,08,13,56,31.80
2010,07,08,13,57,31.80
2010,07,08,13,58,31.90
2010,07,08,13,59,31.90
2010,07,08,14,00,31.90
2010,07,08,14,01,31.90
2010,07,08,14,02,31.90
2010,07,08,14,03,31.90
2010,07,08,14,04,31.90
2010,07,08,14,05,31.90
2010,07,08,14,06,32.10
2010,07,08,14,07,32.10
2010,07,08,14,08,32.10
2010,07,08,14,09,32.00
2010,07,08,14,10,31.90
2010,07,08,14,11,31.60
2010,07,08,14,12,31.40
2010,07,08,14,13,31.30
2010,07,08,14,14,31.20
2010,07,08,14,15,31.00
2010,07,08,14,16,30.80
2010,07,08,14,17,30.80
2010,07,08,14,18,30.80
2010,07,08,14,19,30.90
2010,07,08,14,20,31.10
2010,07,08,14,21,31.20
2010,07,08,14,22,31.30
2010,07,08,14,23,31.40
2010,07,08,14,24,31.60
2010,07,08,14,25,31.60
2010,07,08,14,26,31.60
2010,07,08,14,27,31.70
2010,07,08,14,28,31.80
2010,07,08,14,29,32.00
2010,07,08,14,30,32.10
2010,07,08,14,31,32.20
2010,07,08,14,32,32.20
2010,07,08,14,33,32.20
2010,07,08,14,34,32.20
2010,07,08,14,35,32.10
2010,07,08,14,36,32.10
2010,07,08,14,37,31.90
2010,07,08,14,38,32.00
2010,07,08,14,39,32.10
2010,07,08,14,40,32.10
2010,07,08,14,41,32.20
2010,07,08,14,42,32.10
2010,07,08,14,43,32.10
2010,07,08,14,44,32.10
2010,07,08,14,45,31.90
2010,07,08,14,46,31.90
2010,07,08,14,47,31.90
2010,07,08,14,48,31.90
2010,07,08,14,49,31.80
2010,07,08,14,50,31.80
2010,07,08,14,51,31.90
2010,07,08,14,52,31.90
2010,07,08,14,53,32.00
2010,07,08,14,54,32.10
2010,07,08,14,55,32.20
2010,07,08,14,56,32.10
2010,07,08,14,57,31.80
2010,07,08,14,58,31.50
2010,07,08,14,59,31.40
2010,07,08,15,00,31.30
2010,07,08,15,01,31.30
2010,07,08,15,02,31.30
2010,07,08,15,03,31.40
2010,07,08,15,04,31.40
2010,07,08,15,05,31.30
2010,07,08,15,06,31.30
2010,07,08,15,07,31.30
2010,07,08,15,08,31.40
2010,07,08,15,09,31.40
2010,07,08,15,10,31.40
2010,07,08,15,11,31.50
2010,07,08,15,12,31.60
2010,07,08,15,13,31.60
2010,07,08,15,14,31.60
2010,07,08,15,15,31.60
2010,07,08,15,16,31.60
2010,07,08,15,17,31.60
2010,07,08,15,18,31.70
2010,07,08,15,19,31.70
2010,07,08,15,20,31.70
2010,07,08,15,21,31.80
2010,07,08,15,22,31.90
2010,07,08,15,23,31.90
2010,07,08,15,24,32.00
2010,07,08,15,25,32.10
2010,07,08,15,26,32.20
2010,07,08,15,27,32.30
2010,07,08,15,28,32.40
2010,07,08,15,29,32.50
2010,07,08,15,30,32.70
2010,07,08,15,31,32.80
2010,07,08,15,32,32.90
2010,07,08,15,33,33.00
2010,07,08,15,34,33.00
2010,07,08,15,35,33.10
2010,07,08,15,36,33.10
2010,07,08,15,37,33.30
2010,07,08,15,38,33.40
2010,07,08,15,39,33.20
2010,07,08,15,40,33.10
2010,07,08,15,41,33.00
2010,07,08,15,42,33.00
2010,07,08,15,43,33.00
2010,07,08,15,44,33.00
2010,07,08,15,45,32.80
2010,07,08,15,46,32.40
2010,07,08,15,47,32.10
2010,07,08,15,48,31.80
2010,07,08,15,49,31.40
2010,07,08,15,50,31.10
2010,07,08,15,51,31.00
2010,07,08,15,52,30.80
2010,07,08,15,53,30.70
2010,07,08,15,54,30.70
2010,07,08,15,55,30.70
2010,07,08,15,56,30.70
2010,07,08,15,57,30.60
2010,07,08,15,58,30.30
2010,07,08,15,59,30.10
2010,07,08,16,00,29.90
2010,07,08,16,01,29.80
2010,07,08,16,02,29.80
2010,07,08,16,03,29.80
2010,07,08,16,04,29.70
2010,07,08,16,05,29.70
2010,07,08,16,06,29.60
2010,07,08,16,07,29.60
2010,07,08,16,08,29.60
2010,07,08,16,09,29.60
2010,07,08,16,10,29.60
2010,07,08,16,11,29.60
2010,07,08,16,12,29.60
2010,07,08,16,13,29.40
2010,07,08,16,14,29.40
2010,07,08,16,15,29.30
2010,07,08,16,16,29.30
2010,07,08,16,17,29.30
2010,07,08,16,18,29.30
2010,07,08,16,19,29.30
2010,07,08,16,20,29.30
2010,07,08,16,21,29.30
2010,07,08,16,22,29.30
2010,07,08,16,23,29.40
2010,07,08,16,24,29.40
2010,07,08,16,25,29.40
2010,07,08,16,26,29.30
2010,07,08,16,27,29.10
2010,07,08,16,28,29.00
2010,07,08,16,29,28.80
2010,07,08,16,30,28.60
2010,07,08,16,31,28.40
2010,07,08,16,32,28.30
2010,07,08,16,33,28.30
2010,07,08,16,34,28.20
2010,07,08,16,35,28.20
2010,07,08,16,36,28.20
2010,07,08,16,37,28.10
2010,07,08,16,38,28.10
2010,07,08,16,39,28.00
2010,07,08,16,40,27.90
2010,07,08,16,41,27.70
2010,07,08,16,42,27.70
2010,07,08,16,43,27.60
2010,07,08,16,44,27.60
2010,07,08,16,45,27.50
2010,07,08,16,46,27.40
2010,07,08,16,47,27.60
2010,07,08,16,48,27.50
2010,07,08,16,49,27.40
2010,07,08,16,50,27.30
2010,07,08,16,51,27.40
2010,07,08,16,52,27.40
2010,07,08,16,53,27.30
2010,07,08,16,54,27.30
2010,07,08,16,55,27.10
2010,07,08,16,56,27.00
2010,07,08,16,57,26.90
2010,07,08,16,58,26.80
2010,07,08,16,59,26.80
2010,07,08,17,00,26.80
2010,07,08,17,01,26.80
2010,07,08,17,02,27.00
2010,07,08,17,03,27.20
2010,07,08,17,04,27.30
2010,07,08,17,05,27.30
2010,07,08,17,06,27.10
2010,07,08,17,07,27.00
2010,07,08,17,08,26.80
2010,07,08,17,09,26.60
2010,07,08,17,10,26.60
2010,07,08,17,11,26.60
2010,07,08,17,12,26.60
2010,07,08,17,13,26.80
2010,07,08,17,14,26.80
2010,07,08,17,15,26.70
2010,07,08,17,16,26.60
2010,07,08,17,17,26.60
2010,07,08,17,18,26.60
2010,07,08,17,19,26.70